(172427) = 2003 PF4

Discovered at Haleakala on 2003-08-02 by NEAT.

Orbit

Orbit type: Main Belt

Note: WebGL enabled browser required.

epoch2024-03-31.0
epoch JD2460400.5
perihelion date2021-09-25.91161
perihelion JD2459483.41161
argument of perihelion (°)29.05023
ascending node (°)317.68689
inclination (°)6.90097
eccentricity0.2349044
perihelion distance (AU)1.7986272
Tisserand w.r.t. Jupiter3.5
ΔV w.r.t. Earth (km/sec)8.6
semimajor axis (AU)2.3508527
mean anomaly (°)250.77077
mean daily motion (°/day)0.27344230
aphelion distance (AU)2.903
period (years)3.6
P-vector [x]0.97095956
P-vector [y]-0.23608250
P-vector [z]-0.03876315
Q-vector [x]0.22515574
Q-vector [y]0.84693230
Q-vector [z]0.48167475
absolute magnitude16.62
phase slope0.15
uncertainty0
referenceMPEC 2024-E190
observations used716
oppositions15
arc length (days)10667
first opposition used1993
last opposition used2023
residual rms (arc-secs)0.63
perturbers coarse indicatorM-v
perturbers precise indicator003Ek
first observation date used1993-12-14.0
last observation date used2023-02-27.0
computer nameMPCLINUX
JD of orbit computation2456966.831375
perihelion JD uncertainty (days)2.6209E-05
argument of perihelion uncertainty (°)2.7059E-05
ascending node uncertainty (°)2.6040E-05
inclination uncertainty (°)5.0155E-06
eccentricity uncertainty 4.9576E-08
perihelion distance uncertainty (AU)1.1493E-07
Minimum Orbit Intersection Distances (in AU)
for orbit epoch: 2460400.5, reference: E2024-GB3
Mercury1.41679
Venus1.07924
Earth0.79459
Mars0.43595
Jupiter2.51301
Saturn6.38986
Uranus15.5447
Neptune27.5186

Observations

726 total observations over interval: 1993 12 14.44032 – 2023 02 27.626017
These data are available for download (format description).

Date (UT) J2000 RA J2000 Dec Magn Location Ref
1993 12 14.44032 08 59 25.05 +21 09 06.6   691 – Steward Observatory, Kitt Peak-Spacewatch MPS 84071
1993 12 14.47645 08 59 24.20 +21 09 07.5 21.1 V 691 – Steward Observatory, Kitt Peak-Spacewatch MPS 84071
1993 12 14.51573 08 59 23.23 +21 09 09.8   691 – Steward Observatory, Kitt Peak-Spacewatch MPS 84071
1994 01 19.32851 08 28 35.72 +22 09 54.0   691 – Steward Observatory, Kitt Peak-Spacewatch MPS 84071
1994 01 19.35984 08 28 33.58 +22 09 57.1 19.8 V 691 – Steward Observatory, Kitt Peak-Spacewatch MPS 84071
1994 01 19.39099 08 28 31.32 +22 10 00.5   691 – Steward Observatory, Kitt Peak-Spacewatch MPS 84071
2003 07 02.38098 22 45 00.89 -09 25 16.9 19.2   704 – Lincoln Laboratory ETS, New Mexico MPS 83432
2003 07 02.39109 22 45 01.26 -09 25 11.7 19.2   704 – Lincoln Laboratory ETS, New Mexico MPS 83432
2003 07 02.40101 22 45 01.64 -09 25 05.4 19.5   704 – Lincoln Laboratory ETS, New Mexico MPS 83432
2003 07 02.41098 22 45 02.03 -09 25 00.8 19.1   704 – Lincoln Laboratory ETS, New Mexico MPS 83432
2003 07 24.44860 22 52 20.76 -06 30 55.6 18.3   644 – Palomar Mountain/NEAT MPS 83432
2003 07 24.46277 22 52 20.67 -06 30 49.8 18.3   644 – Palomar Mountain/NEAT MPS 83432
2003 07 24.47980 22 52 20.58 -06 30 43.0 18.2   644 – Palomar Mountain/NEAT MPS 83432
2003 08 02.57471 22 50 25.55 -05 34 58.8 19.5   608 – Haleakala-AMOS MPS 82737
2003 08 02.58548 22 50 25.31 -05 34 55.3 19.5   608 – Haleakala-AMOS MPS 82737
2003 08 02.59614 22 50 25.00 -05 34 51.7 19.7   608 – Haleakala-AMOS MPS 82737
2003 08 04.33427 22 49 43.43 -05 25 30.5 18.6   704 – Lincoln Laboratory ETS, New Mexico MPS 82737
2003 08 04.34466 22 49 43.12 -05 25 26.9 19.1   704 – Lincoln Laboratory ETS, New Mexico MPS 82737
2003 08 04.35515 22 49 42.79 -05 25 23.1 19.6   704 – Lincoln Laboratory ETS, New Mexico MPS 82737
2003 08 04.36576 22 49 42.52 -05 25 20.1 19.3   704 – Lincoln Laboratory ETS, New Mexico MPS 82737
2003 08 04.37610 22 49 42.25 -05 25 17.7 19.7   704 – Lincoln Laboratory ETS, New Mexico MPS 82737
2003 08 22.24111 22 37 20.57 -04 12 43.8 17.4   644 – Palomar Mountain/NEAT MPS 83432
2003 08 22.33017 22 37 15.49 -04 12 29.2 17.4   644 – Palomar Mountain/NEAT MPS 83432
2003 08 22.39697 22 37 11.62 -04 12 17.6 18.0   644 – Palomar Mountain/NEAT MPS 83432
2003 08 24.26903 22 35 29.78 -04 07 08.9 17.0   704 – Lincoln Laboratory ETS, New Mexico MPS 83432
2003 08 24.28148 22 35 29.04 -04 07 06.8 17.3   704 – Lincoln Laboratory ETS, New Mexico MPS 83432
2003 08 24.29462 22 35 28.27 -04 07 04.5 17.7   704 – Lincoln Laboratory ETS, New Mexico MPS 83432
2003 08 24.30800 22 35 27.48 -04 07 02.3 17.6   704 – Lincoln Laboratory ETS, New Mexico MPS 83432
2003 08 24.32147 22 35 26.69 -04 07 00.4 17.5   704 – Lincoln Laboratory ETS, New Mexico MPS 83432
2003 08 28.08447 22 31 54.47 -03 57 54.9 17.8 R 106 – Crni Vrh MPS 83432
2003 08 28.09360 22 31 53.96 -03 57 54.0 18.1 R 106 – Crni Vrh MPS 83433
2003 08 28.10263 22 31 53.42 -03 57 53.1 17.8 R 106 – Crni Vrh MPS 83433
2003 08 28.25378 22 31 45.33 -03 57 30.2 17.9   704 – Lincoln Laboratory ETS, New Mexico MPS 83433
2003 08 28.26715 22 31 44.52 -03 57 28.5 17.8   704 – Lincoln Laboratory ETS, New Mexico MPS 83433
2003 08 28.28113 22 31 43.66 -03 57 27.2 18.0   704 – Lincoln Laboratory ETS, New Mexico MPS 83433
2003 08 28.29626 22 31 42.75 -03 57 25.2 18.0   704 – Lincoln Laboratory ETS, New Mexico MPS 83433
2003 08 28.30886 22 31 41.96 -03 57 23.4 18.0   704 – Lincoln Laboratory ETS, New Mexico MPS 83433
2003 08 31.91240 22 28 16.05 -03 50 05.7 17.5 R 106 – Crni Vrh MPS 84072
2003 08 31.91806 22 28 15.74 -03 50 04.7 17.6 R 106 – Crni Vrh MPS 84072
2003 08 31.92372 22 28 15.42 -03 50 04.3 17.4 R 106 – Crni Vrh MPS 84072
2003 09 02.24852 22 27 00.18 -03 47 37.2 18.4   704 – Lincoln Laboratory ETS, New Mexico MPS 84072
2003 09 02.26021 22 26 59.46 -03 47 36.0 18.3   704 – Lincoln Laboratory ETS, New Mexico MPS 84072
2003 09 02.27214 22 26 58.72 -03 47 34.5 18.7   704 – Lincoln Laboratory ETS, New Mexico MPS 84072
2003 09 02.28392 22 26 58.01 -03 47 33.4 18.5   704 – Lincoln Laboratory ETS, New Mexico MPS 84072
2003 09 02.29557 22 26 57.35 -03 47 32.1 17.9   704 – Lincoln Laboratory ETS, New Mexico MPS 84072
2003 09 07.40450 22 22 15.47 -03 39 16.6 18.8   608 – Haleakala-AMOS MPS 84072
2003 09 07.41541 22 22 14.87 -03 39 15.4 19.0   608 – Haleakala-AMOS MPS 84072
2003 09 07.42575 22 22 14.29 -03 39 14.2 19.1   608 – Haleakala-AMOS MPS 84072
2003 09 13.29924 22 17 21.07 -03 31 13.3 19.6   608 – Haleakala-AMOS MPS 84550
2003 09 13.30995 22 17 20.52 -03 31 12.5 19.5   608 – Haleakala-AMOS MPS 84550
2003 09 13.32060 22 17 19.96 -03 31 11.8 19.6   608 – Haleakala-AMOS MPS 84550
2003 09 16.20909 22 15 12.77 -03 27 33.5 17.8 R 699 – Lowell Observatory-LONEOS MPS 85243
2003 09 16.22578 22 15 11.97 -03 27 32.4   699 – Lowell Observatory-LONEOS MPS 85243
2003 09 16.24230 22 15 11.23 -03 27 31.5   699 – Lowell Observatory-LONEOS MPS 85243
2003 09 16.25878 22 15 10.46 -03 27 30.0   699 – Lowell Observatory-LONEOS MPS 85243
2003 09 18.20568 22 13 52.95 -03 25 02.2 17.7   644 – Palomar Mountain/NEAT MPS 84550
2003 09 18.22659 22 13 52.08 -03 25 00.6 17.6   644 – Palomar Mountain/NEAT MPS 84550
2003 09 18.23143 22 13 51.79 -03 25 01.2 17.6   704 – Lincoln Laboratory ETS, New Mexico MPS 84550
2003 09 18.24323 22 13 51.28 -03 24 59.3 18.3   704 – Lincoln Laboratory ETS, New Mexico MPS 84551
2003 09 18.24828 22 13 51.17 -03 24 59.1 17.7   644 – Palomar Mountain/NEAT MPS 84551
2003 09 18.25491 22 13 50.79 -03 24 59.1 18.3   704 – Lincoln Laboratory ETS, New Mexico MPS 84551
2003 09 18.26654 22 13 50.29 -03 24 58.1 17.9   704 – Lincoln Laboratory ETS, New Mexico MPS 84551
2003 09 18.27819 22 13 49.82 -03 24 56.8 18.0   704 – Lincoln Laboratory ETS, New Mexico MPS 84551
2003 09 21.35314 22 12 01.79 -03 20 58.3 18.7   608 – Haleakala-AMOS MPS 85243
2003 09 21.36391 22 12 01.39 -03 20 57.3 18.7   608 – Haleakala-AMOS MPS 85243
2003 09 21.37473 22 12 01.00 -03 20 56.4 18.6   608 – Haleakala-AMOS MPS 85243
2003 09 27.16242 22 09 30.25 -03 12 47.2 18.1 R 699 – Lowell Observatory-LONEOS MPS 86233
2003 09 27.16878 22 09 30.00 -03 12 46.7 18.1   704 – Lincoln Laboratory ETS, New Mexico MPS 86233
2003 09 27.17578 22 09 29.91 -03 12 45.8   699 – Lowell Observatory-LONEOS MPS 86233
2003 09 27.18141 22 09 29.72 -03 12 45.5 18.5   704 – Lincoln Laboratory ETS, New Mexico MPS 86233
2003 09 27.18916 22 09 29.62 -03 12 44.9   699 – Lowell Observatory-LONEOS MPS 86233
2003 09 27.19410 22 09 29.38 -03 12 44.3 19.2   704 – Lincoln Laboratory ETS, New Mexico MPS 86233
2003 09 27.20245 22 09 29.28 -03 12 43.7   699 – Lowell Observatory-LONEOS MPS 86233
2003 09 27.20712 22 09 29.10 -03 12 42.8 19.0   704 – Lincoln Laboratory ETS, New Mexico MPS 86233
2003 09 27.21996 22 09 28.75 -03 12 41.1 19.0   704 – Lincoln Laboratory ETS, New Mexico MPS 86233
2003 10 19.17046 22 11 31.30 -02 19 49.6 19.6   704 – Lincoln Laboratory ETS, New Mexico MPS 88046
2003 10 19.18196 22 11 31.72 -02 19 45.4 19.7   704 – Lincoln Laboratory ETS, New Mexico MPS 88046
2003 10 19.19359 22 11 32.04 -02 19 43.5 19.8   704 – Lincoln Laboratory ETS, New Mexico MPS 88046
2003 11 20.08292 22 42 27.65 +00 29 15.8 19.6   704 – Lincoln Laboratory ETS, New Mexico MPS 90975
2003 11 20.09538 22 42 28.60 +00 29 20.6 19.8   704 – Lincoln Laboratory ETS, New Mexico MPS 90975
2003 11 20.10791 22 42 29.58 +00 29 25.9 20.4   704 – Lincoln Laboratory ETS, New Mexico MPS 90975
2003 11 20.12070 22 42 30.67 +00 29 31.8 19.9   704 – Lincoln Laboratory ETS, New Mexico MPS 90975
2003 11 24.07024 22 47 59.24 +00 58 23.1 19.8   704 – Lincoln Laboratory ETS, New Mexico MPS 91816
2003 11 24.10762 22 48 02.40 +00 58 40.3 19.6   704 – Lincoln Laboratory ETS, New Mexico MPS 91816
2003 11 24.12013 22 48 03.45 +00 58 46.6 20.1   704 – Lincoln Laboratory ETS, New Mexico MPS 91816
2004 12 20.39852 10 03 36.37 +13 11 51.9 20.8 R G96 – Mt. Lemmon Survey MPS 178408
2004 12 20.41207 10 03 36.27 +13 11 51.3 20.5 R G96 – Mt. Lemmon Survey MPS 178408
2004 12 20.42572 10 03 36.20 +13 11 50.3 20.6 R G96 – Mt. Lemmon Survey MPS 178408
2004 12 20.43934 10 03 36.07 +13 11 49.5 20.8 R G96 – Mt. Lemmon Survey MPS 178408
